Weather History for Greenville, NC

Change the Weather History Date:

Sunday, February 3, 2013

  Actual Average Record
Temperature  
Mean Temperature 42 °F -  
Max Temperature 50 °F 56 °F 83 °F (1989)
Min Temperature 33 °F 33 °F 12 °F (1980)
Degree Days  
Heating Degree Days 24    
Moisture  
Dew Point 32 °F    
Average Humidity 73    
Maximum Humidity 100    
Minimum Humidity 37    
Precipitation  
Precipitation 0.05 in - - ()
Sea Level Pressure  
Sea Level Pressure 29.96 in    
Wind  
Wind Speed 4 mph (WNW)    
Max Wind Speed 15 mph    
Max Gust Speed 20 mph    
Visibility 9 miles    
Events Rain    
Averages and records for this station are not official NWS values.
T = Trace of Precipitation, MM = Missing Value Source: NWS Daily Summary

Daily Weather History Graph

Daily Weather History Graph

Search for Another Location

Airport:

Trip Planner

Search our weather history database for the weather conditions in past years. The results will help you decide how hot, cold, wet, or windy it might be!

Date:

Astronomy

Feb. 03, 2013 Rise Set
Actual Time 7:07 AM EST 5:39 PM EST
Civil Twilight 6:41 AM EST 6:06 PM EST
Nautical Twilight 6:10 AM EST 6:36 PM EST
Astronomical Twilight 5:40 AM EST 7:06 PM EST
Moon 12:32 AM EST (2/3) 11:16 AM EST (2/3)
Length of Visible Light 11h 25m
Length of Day
10h 31m
Waning Gibbous, 49% of the Moon is Illuminated
Feb 3
Waning Gibbous
Feb 10
New
Feb 17
First Quarter
Feb 25
Full
Mar 4
Last Quarter

Hourly Weather History & Observations

Time (EST) Temp. Windchill Dew Point Humidity Pressure Visibility Wind Dir Wind Speed Gust Speed Precip Events Conditions
12:15 AM 39.2 °F 35.9 °F 35.6 °F 87% 30.07 in 10.0 mi West 4.6 mph - 0.02 in Rain Light Rain
12:35 AM 39.2 °F 35.0 °F 37.4 °F 93% 30.06 in 10.0 mi West 5.8 mph - 0.03 in Rain Rain
12:55 AM 39.2 °F 35.9 °F 37.4 °F 93% 30.05 in 10.0 mi WSW 4.6 mph - 0.04 in   Drizzle
1:15 AM 39.2 °F 35.9 °F 37.4 °F 93% 30.03 in 10.0 mi SW 4.6 mph - N/A   Overcast
1:35 AM 39.2 °F - 37.4 °F 93% 30.02 in 10.0 mi Calm Calm - N/A   Overcast
1:55 AM 39.2 °F - 37.4 °F 93% 30.01 in 10.0 mi Calm Calm - N/A   Overcast
2:15 AM 39.2 °F - 37.4 °F 93% 30.00 in 10.0 mi Calm Calm - N/A   Overcast
2:35 AM 39.2 °F 35.9 °F 37.4 °F 93% 29.99 in 10.0 mi SW 4.6 mph - N/A   Overcast
2:55 AM 39.2 °F 37.0 °F 37.4 °F 93% 29.99 in 10.0 mi WSW 3.5 mph - N/A   Overcast
3:15 AM 39.2 °F 37.0 °F 35.6 °F 87% 29.98 in 10.0 mi West 3.5 mph - N/A   Overcast
3:35 AM 39.2 °F 35.0 °F 37.4 °F 93% 29.98 in 10.0 mi WSW 5.8 mph - N/A   Overcast
3:55 AM 39.2 °F 37.0 °F 37.4 °F 93% 29.97 in 10.0 mi WSW 3.5 mph - N/A   Overcast
4:15 AM 39.2 °F 37.0 °F 37.4 °F 93% 29.97 in 10.0 mi SW 3.5 mph - N/A   Overcast
4:35 AM 39.2 °F - 37.4 °F 93% 29.96 in 10.0 mi Calm Calm - N/A   Overcast
4:55 AM 37.4 °F - 35.6 °F 93% 29.96 in 10.0 mi Calm Calm - N/A   Mostly Cloudy
5:15 AM 37.4 °F - 35.6 °F 93% 29.95 in 10.0 mi Calm Calm - N/A   Scattered Clouds
5:35 AM 37.4 °F - 35.6 °F 93% 29.95 in 7.0 mi Calm Calm - N/A   Scattered Clouds
5:55 AM 37.4 °F - 35.6 °F 93% 29.95 in 10.0 mi Calm Calm - N/A   Overcast
6:15 AM 33.8 °F - 33.8 °F 100% 29.95 in 5.0 mi Calm Calm - N/A   Overcast
6:35 AM 37.4 °F - 35.6 °F 93% 29.96 in 7.0 mi Calm Calm - N/A   Overcast
6:55 AM 35.6 °F - 35.6 °F 100% 29.95 in 1.0 mi Calm Calm - N/A   Overcast
7:15 AM 33.8 °F - 33.8 °F 100% 29.96 in 0.8 mi Calm Calm - N/A   Overcast
7:35 AM 35.6 °F 32.8 °F 35.6 °F 100% 29.98 in 5.0 mi WSW 3.5 mph - N/A   Overcast
7:55 AM 35.6 °F - 35.6 °F 100% 29.97 in 7.0 mi Calm Calm - N/A   Overcast
8:15 AM 37.4 °F - 37.4 °F 100% 29.97 in 7.0 mi Calm Calm - N/A   Overcast
8:35 AM 37.4 °F - 37.4 °F 100% 29.98 in 10.0 mi Calm Calm - N/A   Overcast
8:55 AM 39.2 °F 37.0 °F 37.4 °F 93% 29.98 in 10.0 mi West 3.5 mph - N/A   Light Drizzle
9:15 AM 41.0 °F 37.1 °F 33.8 °F 76% 29.99 in 10.0 mi WNW 5.8 mph - N/A   Light Drizzle
9:35 AM 41.0 °F 35.2 °F 33.8 °F 76% 29.99 in 10.0 mi NW 9.2 mph - N/A   Light Drizzle
9:55 AM 41.0 °F 37.1 °F 35.6 °F 81% 29.98 in 10.0 mi NW 5.8 mph - N/A   Overcast
10:15 AM 41.0 °F 34.7 °F 33.8 °F 76% 29.98 in 10.0 mi North 10.4 mph - N/A   Overcast
10:35 AM 41.0 °F 39.0 °F 33.8 °F 76% 29.98 in 10.0 mi NW 3.5 mph - N/A   Overcast
10:55 AM 42.8 °F 40.1 °F 33.8 °F 70% 29.97 in 10.0 mi West 4.6 mph - N/A   Mostly Cloudy
11:15 AM 42.8 °F 38.6 °F 33.8 °F 70% 29.97 in 10.0 mi West 6.9 mph - N/A   Overcast
11:35 AM 42.8 °F - 33.8 °F 70% 29.96 in 10.0 mi Calm Calm - N/A   Overcast
11:55 AM 42.8 °F 41.1 °F 32.0 °F 66% 29.95 in 10.0 mi WNW 3.5 mph - N/A   Overcast
12:15 PM 41.0 °F 37.1 °F 33.8 °F 76% 29.95 in 10.0 mi West 5.8 mph - N/A Rain Light Rain
12:35 PM 42.8 °F 41.1 °F 33.8 °F 70% 29.93 in 10.0 mi West 3.5 mph - 0.01 in   Scattered Clouds
12:55 PM 44.6 °F 42.2 °F 35.6 °F 71% 29.91 in 10.0 mi WSW 4.6 mph - 0.01 in   Clear
1:15 PM 46.4 °F 42.4 °F 32.0 °F 57% 29.90 in 10.0 mi West 8.1 mph - N/A   Clear
1:35 PM 48.2 °F - 32.0 °F 54% 29.90 in 10.0 mi WNW 9.2 mph 16.1 mph N/A   Mostly Cloudy
1:55 PM 48.2 °F - 30.2 °F 50% 29.89 in 10.0 mi NW 9.2 mph - N/A   Overcast
2:15 PM 48.2 °F - 28.4 °F 46% 29.88 in 10.0 mi West 15.0 mph - N/A   Mostly Cloudy
2:35 PM 48.2 °F - 26.6 °F 43% 29.88 in 10.0 mi WNW 11.5 mph 17.3 mph N/A   Mostly Cloudy
2:55 PM 48.2 °F - 26.6 °F 43% 29.88 in 10.0 mi WNW 13.8 mph 17.3 mph N/A   Scattered Clouds
3:15 PM 50.0 °F - 26.6 °F 40% 29.89 in 10.0 mi WNW 12.7 mph 19.6 mph N/A   Scattered Clouds
3:55 PM 48.2 °F - 24.8 °F 40% 29.90 in 10.0 mi West 11.5 mph 18.4 mph N/A   Scattered Clouds
4:15 PM 50.0 °F - 24.8 °F 37% 29.90 in 10.0 mi West 10.4 mph 17.3 mph N/A   Clear
4:35 PM 48.2 °F - 26.6 °F 43% 29.90 in 10.0 mi West 8.1 mph - N/A   Scattered Clouds
4:55 PM 48.2 °F - 26.6 °F 43% 29.90 in 10.0 mi West 5.8 mph - N/A   Mostly Cloudy
5:15 PM 46.4 °F 44.3 °F 26.6 °F 46% 29.90 in 10.0 mi West 4.6 mph - N/A   Mostly Cloudy
5:35 PM 46.4 °F 45.2 °F 28.4 °F 50% 29.91 in 10.0 mi West 3.5 mph - N/A   Mostly Cloudy
5:55 PM 44.6 °F 43.1 °F 28.4 °F 53% 29.92 in 10.0 mi West 3.5 mph - N/A   Overcast
6:15 PM 44.6 °F - 28.4 °F 53% 29.92 in 10.0 mi Calm Calm - N/A   Overcast
6:35 PM 44.6 °F - 28.4 °F 53% 29.93 in 10.0 mi Calm Calm - N/A   Overcast
6:55 PM 44.6 °F - 28.4 °F 53% 29.93 in 10.0 mi Calm Calm - N/A   Overcast
7:15 PM 44.6 °F - 30.2 °F 57% 29.94 in 10.0 mi Calm Calm - N/A   Overcast
7:35 PM 42.8 °F - 30.2 °F 61% 29.94 in 10.0 mi Calm Calm - N/A   Mostly Cloudy
7:55 PM 42.8 °F - 30.2 °F 61% 29.95 in 10.0 mi Calm Calm - N/A   Scattered Clouds
8:15 PM 42.8 °F 38.6 °F 30.2 °F 61% 29.96 in 10.0 mi NW 6.9 mph - N/A   Scattered Clouds
8:35 PM 42.8 °F 40.1 °F 30.2 °F 61% 29.96 in 10.0 mi NNW 4.6 mph - N/A   Scattered Clouds
8:55 PM 39.2 °F 35.9 °F 30.2 °F 70% 29.96 in 10.0 mi North 4.6 mph - N/A   Clear
9:15 PM 41.0 °F 39.0 °F 30.2 °F 65% 29.97 in 10.0 mi NNW 3.5 mph - N/A   Clear
9:35 PM 39.2 °F - 30.2 °F 70% 29.98 in 10.0 mi Calm Calm - N/A   Clear
9:55 PM 37.4 °F 34.9 °F 30.2 °F 75% 29.99 in 10.0 mi WNW 3.5 mph - N/A   Clear
10:15 PM 39.2 °F 37.0 °F 30.2 °F 70% 30.00 in 10.0 mi NW 3.5 mph - N/A   Clear
10:35 PM 39.2 °F 35.0 °F 28.4 °F 65% 30.00 in 10.0 mi NW 5.8 mph - N/A   Clear
10:55 PM 37.4 °F 34.9 °F 28.4 °F 70% 30.00 in 10.0 mi NW 3.5 mph - N/A   Clear
11:15 PM 37.4 °F 34.9 °F 26.6 °F 65% 30.01 in 10.0 mi NW 3.5 mph - N/A   Clear
11:35 PM 37.4 °F - 26.6 °F 65% 30.01 in 10.0 mi Calm Calm - N/A   Clear
11:55 PM 37.4 °F - 26.6 °F 65% 30.01 in 10.0 mi Calm Calm - N/A   Clear